Ketchikan, AK

2:36 PM AKST on February 25, 2017 (GMT -0900)
Ketchikan International

Weather History for PAKT - January, 2013

Change the Weather History Date:

Tuesday, January 8, 2013

  Actual Average Record
Temperature  
Mean Temperature 34 °F -  
Max Temperature 36 °F 38 °F 52 °F (1958)
Min Temperature 32 °F 24 °F 2 °F (1953)
Degree Days  
Heating Degree Days 31    
Moisture  
Dew Point 34 °F    
Average Humidity 98    
Maximum Humidity 100    
Minimum Humidity 89    
Precipitation  
Precipitation 0.05 in - - ()
Sea Level Pressure  
Sea Level Pressure 29.74 in    
Wind  
Wind Speed 4 mph (SSW)    
Max Wind Speed 13 mph    
Max Gust Speed -    
Visibility 10 miles    
Events Rain    
Averages and records for this station are not official NWS values.
T = Trace of Precipitation, MM = Missing Value Source: NWS Daily Summary

Daily Weather History Graph

Daily Weather History Graph

Search for Another Location

Airport or City:

Trip Planner

Search our weather history database for the weather conditions in past years. The results will help you decide how hot, cold, wet, or windy it might be!

Date:

Astronomy

Jan. 08, 2013 Rise Set
Actual Time 8:10 AM AKST 3:37 PM AKST
Civil Twilight 7:25 AM AKST 4:22 PM AKST
Nautical Twilight 6:38 AM AKST 5:09 PM AKST
Astronomical Twilight 5:54 AM AKST 5:53 PM AKST
Moon 4:48 AM AKST (1/8) 12:47 PM AKST (1/8)
Length of Visible Light 8h 56m
Length of Day
7h 27m
Waning Crescent, 12% of the Moon is Illuminated
Jan 8
Waning Crescent
Jan 11
New
Jan 18
First Quarter
Jan 26
Full
Feb 3
Last Quarter

Hourly Weather History & Observations

Time (AKST) Temp. Windchill Dew Point Humidity Pressure Visibility Wind Dir Wind Speed Gust Speed Precip Events Conditions
12:00 AM 35.6 °F - 35.6 °F 100% 29.84 in 10.0 mi Calm Calm - N/A   Mostly Cloudy
12:31 AM 35.6 °F 30.7 °F 35.6 °F 100% 29.84 in 10.0 mi South 5.8 mph - N/A   Mostly Cloudy
12:53 AM 36.0 °F 30.3 °F 36.0 °F 100% 29.84 in 10.0 mi South 6.9 mph - N/A   Mostly Cloudy
1:11 AM 35.6 °F 31.7 °F 35.6 °F 100% 29.84 in 10.0 mi South 4.6 mph - N/A   Overcast
1:43 AM 35.6 °F 31.7 °F 35.6 °F 100% 29.85 in 10.0 mi South 4.6 mph - N/A   Mostly Cloudy
1:53 AM 36.0 °F 31.1 °F 36.0 °F 100% 29.85 in 10.0 mi South 5.8 mph - N/A   Mostly Cloudy
2:53 AM 35.1 °F 32.2 °F 35.1 °F 100% 29.86 in 10.0 mi South 3.5 mph - N/A   Clear
3:53 AM 36.0 °F 32.1 °F 35.1 °F 97% 29.85 in 10.0 mi South 4.6 mph - N/A   Scattered Clouds
4:53 AM 35.1 °F 30.1 °F 35.1 °F 100% 29.84 in 10.0 mi South 5.8 mph - N/A   Mostly Cloudy
5:01 AM 35.6 °F 31.7 °F 35.6 °F 100% 29.83 in 10.0 mi SSE 4.6 mph - 0.00 in Rain Light Rain
5:53 AM 35.1 °F 29.3 °F 35.1 °F 100% 29.82 in 10.0 mi SE 6.9 mph - 0.00 in Rain Light Rain
6:05 AM 35.6 °F 31.7 °F 35.6 °F 100% 29.82 in 10.0 mi South 4.6 mph - 0.00 in   Overcast
6:53 AM 34.0 °F 29.8 °F 34.0 °F 100% 29.82 in 10.0 mi South 4.6 mph - 0.01 in Rain Light Rain
7:53 AM 34.0 °F - 34.0 °F 100% 29.81 in 10.0 mi Calm Calm - 0.03 in   Overcast
8:53 AM 35.1 °F - 35.1 °F 100% 29.81 in 10.0 mi Calm Calm - N/A   Overcast
9:53 AM 35.1 °F - 35.1 °F 100% 29.79 in 10.0 mi Calm Calm - N/A   Mostly Cloudy
10:53 AM 36.0 °F 33.3 °F 36.0 °F 100% 29.78 in 10.0 mi SSE 3.5 mph - N/A   Mostly Cloudy
11:53 AM 36.0 °F - 35.1 °F 97% 29.75 in 10.0 mi Calm Calm - N/A   Mostly Cloudy
12:53 PM 36.0 °F - 35.1 °F 97% 29.71 in 10.0 mi Calm Calm - N/A   Partly Cloudy
1:53 PM 35.1 °F - 34.0 °F 96% 29.69 in 10.0 mi Calm Calm - N/A   Partly Cloudy
2:53 PM 33.1 °F 30.0 °F 33.1 °F 100% 29.65 in 10.0 mi WSW 3.5 mph - N/A   Partly Cloudy
3:53 PM 34.0 °F 28.8 °F 33.1 °F 96% 29.62 in 10.0 mi NW 5.8 mph - 0.01 in   Clear
4:53 PM 33.1 °F - 33.1 °F 100% 29.61 in 10.0 mi Calm Calm - N/A   Clear
5:53 PM 32.0 °F 28.7 °F 32.0 °F 100% 29.60 in 10.0 mi NNW 3.5 mph - N/A   Clear
6:53 PM 33.1 °F 26.1 °F 33.1 °F 100% 29.58 in 10.0 mi NW 8.1 mph - N/A   Clear
7:53 PM 33.1 °F 26.1 °F 33.1 °F 100% 29.57 in 10.0 mi NW 8.1 mph - N/A   Clear
8:53 PM 33.1 °F 24.9 °F 32.0 °F 96% 29.57 in 10.0 mi NW 10.4 mph - N/A   Clear
9:53 PM 33.1 °F 24.9 °F 30.9 °F 92% 29.57 in 10.0 mi NW 10.4 mph - N/A   Clear
10:53 PM 33.1 °F 25.5 °F 30.0 °F 89% 29.59 in 10.0 mi NW 9.2 mph - N/A   Clear
11:53 PM 33.1 °F 23.9 °F 30.0 °F 89% 29.60 in 10.0 mi NW 12.7 mph - N/A   Clear